Cedar Rapids, IA

5:51 PM CDT on May 24, 2017 (GMT -0500)
The Eastern Iowa Airport

Weather History for KCID - January, 2014

Change the Weather History Date:

Saturday, January 11, 2014

  Actual Average Record
Temperature  
Mean Temperature 28 °F 19 °F  
Max Temperature 32 °F 28 °F 53 °F (2012)
Min Temperature 24 °F 11 °F -20 °F (1977)
Degree Days  
Heating Degree Days 37 46  
Month to date heating degree days 621 501  
Since 1 July heating degree days 3539 3240  
Cooling Degree Days 0 0  
Month to date cooling degree days 0 0  
Year to date cooling degree days 0 0  
Moisture  
Dew Point 26 °F    
Average Humidity 82    
Maximum Humidity 92    
Minimum Humidity 72    
Precipitation  
Precipitation 0.00 in 0.03 in 0.70 in (1960)
Month to date precipitation 0.08 0.34  
Year to date precipitation 0.08 0.34  
Sea Level Pressure  
Sea Level Pressure 29.66 in    
Wind  
Wind Speed 14 mph (WNW)    
Max Wind Speed 26 mph    
Max Gust Speed 35 mph    
Visibility 8 miles    
Events      
T = Trace of Precipitation, MM = Missing Value Source: NWS Daily Summary

Daily Weather History Graph

Daily Weather History Graph

Search for Another Location

Airport or City:

Trip Planner

Search our weather history database for the weather conditions in past years. The results will help you decide how hot, cold, wet, or windy it might be!

Date:

Astronomy

Jan. 11, 2014 Rise Set
Actual Time 7:33 AM CST 4:56 PM CST
Civil Twilight 7:02 AM CST 5:27 PM CST
Nautical Twilight 6:27 AM CST 6:02 PM CST
Astronomical Twilight 5:54 AM CST 6:35 PM CST
Moon 1:41 PM CST (1/11) 3:37 AM CST (1/11)
Length of Visible Light 10h 25m
Length of Day
9h 22m
Waxing Gibbous, 83% of the Moon is Illuminated
Jan 11
Waxing Gibbous
Jan 15
Full
Jan 23
Last Quarter
Jan 30
New
Feb 6
First Quarter

Hourly Weather History & Observations

Time (CST) Temp. Windchill Dew Point Humidity Pressure Visibility Wind Dir Wind Speed Gust Speed Precip Events Conditions
12:16 AM 32.0 °F 23.6 °F 30.2 °F 93% 29.49 in 7.0 mi WNW 10.4 mph - N/A   Overcast
12:52 AM 32.0 °F 23.6 °F 30.0 °F 92% 29.50 in 8.0 mi WNW 10.4 mph - N/A   Overcast
1:52 AM 32.0 °F 22.1 °F 30.0 °F 92% 29.52 in 8.0 mi WNW 13.8 mph - N/A   Overcast
2:52 AM 32.0 °F 23.0 °F 28.9 °F 88% 29.52 in 8.0 mi WNW 11.5 mph - N/A   Overcast
3:09 AM 32.0 °F 22.5 °F 28.4 °F 87% 29.50 in 7.0 mi WNW 12.7 mph - N/A   Overcast
3:23 AM 32.0 °F 21.6 °F 28.4 °F 87% 29.50 in 7.0 mi WNW 15.0 mph - N/A   Overcast
3:48 AM 30.2 °F 18.9 °F 28.4 °F 93% 29.50 in 7.0 mi WNW 16.1 mph - N/A   Overcast
3:52 AM 30.9 °F 19.8 °F 28.0 °F 89% 29.52 in 7.0 mi WNW 16.1 mph - N/A   Overcast
4:52 AM 30.9 °F 19.1 °F 28.9 °F 92% 29.54 in 8.0 mi WNW 18.4 mph 21.9 mph N/A   Overcast
5:52 AM 30.9 °F 20.2 °F 28.9 °F 92% 29.55 in 4.0 mi WNW 15.0 mph - N/A   Overcast
6:52 AM 30.9 °F 20.2 °F 28.0 °F 89% 29.57 in 4.0 mi WNW 15.0 mph - N/A   Overcast
7:52 AM 30.9 °F 22.2 °F 28.0 °F 89% 29.59 in 4.0 mi West 10.4 mph - N/A   Overcast
8:49 AM 30.2 °F 19.8 °F 26.6 °F 86% 29.58 in 5.0 mi WNW 13.8 mph - N/A   Overcast
8:52 AM 30.9 °F 21.7 °F 27.0 °F 85% 29.61 in 5.0 mi WNW 11.5 mph - N/A   Overcast
9:15 AM 30.2 °F 18.9 °F 26.6 °F 86% 29.59 in 4.0 mi West 16.1 mph - N/A   Overcast
9:40 AM 28.4 °F 17.0 °F 24.8 °F 86% 29.59 in 5.0 mi West 15.0 mph - N/A   Scattered Clouds
9:52 AM 30.0 °F 19.5 °F 25.0 °F 82% 29.62 in 6.0 mi West 13.8 mph - N/A   Haze
10:52 AM 30.0 °F 17.9 °F 23.0 °F 75% 29.63 in 10.0 mi WNW 18.4 mph - N/A   Clear
11:52 AM 28.9 °F 17.3 °F 23.0 °F 78% 29.64 in 10.0 mi WNW 16.1 mph - N/A   Clear
12:34 PM 28.4 °F 15.8 °F 24.8 °F 86% 29.62 in 8.0 mi WNW 18.4 mph - N/A   Mostly Cloudy
12:52 PM 30.0 °F 17.9 °F 25.0 °F 82% 29.65 in 8.0 mi WNW 18.4 mph - N/A   Overcast
1:52 PM 30.0 °F 16.6 °F 25.0 °F 82% 29.66 in 9.0 mi WNW 23.0 mph 27.6 mph N/A   Overcast
2:52 PM 28.0 °F 14.3 °F 23.0 °F 81% 29.70 in 10.0 mi NW 21.9 mph 34.5 mph N/A   Overcast
3:52 PM 28.9 °F 17.3 °F 24.1 °F 82% 29.72 in 9.0 mi WNW 16.1 mph - N/A   Overcast
4:52 PM 30.0 °F 18.7 °F 25.0 °F 82% 29.74 in 9.0 mi WNW 16.1 mph - N/A   Overcast
5:52 PM 30.0 °F 19.5 °F 25.0 °F 82% 29.77 in 10.0 mi WNW 13.8 mph - N/A   Overcast
6:45 PM 30.2 °F 20.8 °F 24.8 °F 80% 29.76 in 10.0 mi WNW 11.5 mph - N/A   Overcast
6:52 PM 30.0 °F 20.5 °F 25.0 °F 82% 29.79 in 10.0 mi WNW 11.5 mph - N/A   Overcast
7:52 PM 30.9 °F 20.7 °F 26.1 °F 82% 29.82 in 10.0 mi West 13.8 mph - N/A   Overcast
8:52 PM 30.0 °F 20.5 °F 25.0 °F 82% 29.84 in 10.0 mi WNW 11.5 mph - N/A   Overcast
8:54 PM 30.2 °F 21.3 °F 24.8 °F 80% 29.81 in 10.0 mi WNW 10.4 mph - N/A   Overcast
9:52 PM 26.1 °F 21.9 °F 23.0 °F 88% 29.83 in 10.0 mi WSW 3.5 mph - N/A   Overcast
10:36 PM 26.6 °F 19.1 °F 23.0 °F 86% 29.82 in 10.0 mi SW 6.9 mph - N/A   Overcast
10:52 PM 28.0 °F 18.6 °F 24.1 °F 85% 29.85 in 8.0 mi WSW 10.4 mph - N/A   Overcast
11:33 PM 24.8 °F 16.1 °F 21.2 °F 86% 29.82 in 8.0 mi SW 8.1 mph - N/A   Scattered Clouds
11:52 PM 25.0 °F 17.1 °F 21.9 °F 88% 29.85 in 8.0 mi SSW 6.9 mph - N/A   Clear